Location: Augustenthal
(51.7167°N, 10.2833°E)
Time: 02:44:07
(UTC+00:00)

RESURS DK-1 - Pass Details

Date: 18 May 2021
Orbit: 553 x 564 km, 69.9° (Epoch: 14 June)

Event Time Altitude Azimuth Distance (km) Brightness Sun altitude
Rises 21:05:01 0° 328° (NNW) 2,769 8.0 -13.1°
Reaches altitude 10° 21:07:14 10° 329° (NNW) 1,869 6.5 -13.2°
Maximum altitude 21:11:26 80° 57° (ENE) 580 2.4 -13.6°
Enters shadow 21:13:58 23° 143° (SE) 1,224 3.5 -13.8°
